TimeCDT,TemperatureF,Dew PointF,Humidity,Sea Level PressureIn,VisibilityMPH,Wind Direction,Wind SpeedMPH,Gust SpeedMPH,PrecipitationIn,Events,Conditions,WindDirDegrees,DateUTC
12:15 AM,46.8,44.1,90,30.09,10.0,Calm,Calm,-,N/A,,Clear,0,2013-10-08 05:15:00
12:35 AM,46.6,44.4,92,30.09,10.0,Calm,Calm,-,N/A,,Clear,0,2013-10-08 05:35:00
12:55 AM,46.6,44.4,92,30.09,10.0,Calm,Calm,-,N/A,,Clear,0,2013-10-08 05:55:00
1:15 AM,46.0,44.1,93,30.09,10.0,Calm,Calm,-,N/A,,Clear,0,2013-10-08 06:15:00
1:35 AM,45.1,43.5,94,30.10,7.0,Calm,Calm,-,N/A,,Clear,0,2013-10-08 06:35:00
1:55 AM,46.6,45.0,94,30.10,10.0,Calm,Calm,-,N/A,,Clear,0,2013-10-08 06:55:00
2:15 AM,45.5,43.9,94,30.10,10.0,Calm,Calm,-,N/A,,Clear,0,2013-10-08 07:15:00
2:35 AM,45.5,44.1,95,30.10,5.0,NE,3.5,-,N/A,,Clear,40,2013-10-08 07:35:00
2:55 AM,44.8,43.5,95,30.10,7.0,Calm,Calm,-,N/A,,Clear,0,2013-10-08 07:55:00
3:15 AM,44.2,43.0,95,30.10,7.0,NE,3.5,-,N/A,,Clear,40,2013-10-08 08:15:00
3:35 AM,44.2,43.0,95,30.10,10.0,Calm,Calm,-,N/A,,Clear,0,2013-10-08 08:35:00
3:55 AM,44.8,43.7,96,30.10,10.0,Calm,Calm,-,N/A,,Clear,0,2013-10-08 08:55:00
4:15 AM,45.1,43.9,95,30.11,10.0,Calm,Calm,-,N/A,,Clear,0,2013-10-08 09:15:00
4:35 AM,45.1,43.0,92,30.11,10.0,Calm,Calm,-,N/A,,Clear,0,2013-10-08 09:35:00
4:55 AM,44.6,42.8,93,30.12,7.0,Calm,Calm,-,N/A,,Clear,0,2013-10-08 09:55:00
5:15 AM,43.0,41.4,94,30.12,4.0,Calm,Calm,-,N/A,,Clear,0,2013-10-08 10:15:00
5:35 AM,43.2,41.9,95,30.13,5.0,Calm,Calm,-,N/A,,Clear,0,2013-10-08 10:35:00
5:55 AM,42.8,41.5,95,30.13,4.0,Calm,Calm,-,N/A,,Clear,0,2013-10-08 10:55:00
6:15 AM,42.8,41.5,95,30.13,4.0,Calm,Calm,-,N/A,,Clear,0,2013-10-08 11:15:00
6:35 AM,42.8,41.5,95,30.13,1.2,Calm,Calm,-,N/A,,Mist,0,2013-10-08 11:35:00
6:55 AM,42.3,41.0,95,30.14,10.0,Calm,Calm,-,N/A,,Clear,0,2013-10-08 11:55:00
7:15 AM,42.1,41.0,96,30.14,1.0,Calm,Calm,-,N/A,,Mist,0,2013-10-08 12:15:00
7:35 AM,42.8,41.4,95,30.14,7.0,Calm,Calm,-,N/A,,Clear,0,2013-10-08 12:35:00
7:55 AM,44.8,43.7,96,30.15,10.0,Calm,Calm,-,N/A,,Clear,0,2013-10-08 12:55:00
8:15 AM,48.2,46.8,95,30.15,7.0,Calm,Calm,-,N/A,,Clear,0,2013-10-08 13:15:00
8:35 AM,51.1,47.5,87,30.16,10.0,Calm,Calm,-,N/A,,Clear,0,2013-10-08 13:35:00
8:55 AM,53.8,48.4,82,30.16,10.0,SSE,4.6,-,N/A,,Clear,150,2013-10-08 13:55:00
9:15 AM,55.8,47.8,75,30.16,10.0,SSE,4.6,-,N/A,,Clear,150,2013-10-08 14:15:00
9:35 AM,57.9,48.4,71,30.16,10.0,SSE,3.5,-,N/A,,Clear,160,2013-10-08 14:35:00
9:55 AM,59.5,49.5,69,30.16,10.0,South,3.5,-,N/A,,Clear,170,2013-10-08 14:55:00
10:15 AM,62.1,48.4,61,30.16,10.0,SSW,3.5,-,N/A,,Clear,200,2013-10-08 15:15:00
10:35 AM,63.7,48.7,58,30.16,10.0,SSW,4.6,-,N/A,,Clear,200,2013-10-08 15:35:00
10:55 AM,65.1,49.5,57,30.16,10.0,SSW,3.5,-,N/A,,Clear,210,2013-10-08 15:55:00
11:15 AM,67.3,48.9,52,30.15,10.0,SSW,4.6,-,N/A,,Clear,200,2013-10-08 16:15:00
11:35 AM,69.1,48.6,48,30.15,10.0,South,5.8,-,N/A,,Clear,190,2013-10-08 16:35:00
11:55 AM,70.9,48.2,44,30.15,10.0,South,8.1,-,N/A,,Clear,180,2013-10-08 16:55:00
12:15 PM,71.2,46.4,41,30.14,10.0,SSW,8.1,-,N/A,,Clear,210,2013-10-08 17:15:00
12:35 PM,72.1,47.3,41,30.14,10.0,SSW,10.4,-,N/A,,Clear,210,2013-10-08 17:35:00
12:55 PM,74.3,45.3,36,30.13,10.0,SSW,9.2,-,N/A,,Clear,200,2013-10-08 17:55:00
1:15 PM,75.4,44.4,33,30.12,10.0,SSW,12.7,17.3,N/A,,Clear,210,2013-10-08 18:15:00
1:35 PM,75.6,43.7,32,30.11,10.0,SSW,12.7,-,N/A,,Clear,210,2013-10-08 18:35:00
1:55 PM,76.1,43.2,31,30.11,10.0,SSW,10.4,-,N/A,,Clear,210,2013-10-08 18:55:00
2:15 PM,77.0,43.5,30,30.10,10.0,SSW,10.4,16.1,N/A,,Clear,200,2013-10-08 19:15:00
2:35 PM,77.5,41.2,27,30.10,10.0,SSW,10.4,19.6,N/A,,Clear,200,2013-10-08 19:35:00
2:55 PM,77.9,40.6,26,30.10,10.0,SSW,11.5,-,N/A,,Clear,200,2013-10-08 19:55:00
3:15 PM,77.7,41.2,27,30.09,10.0,SSW,9.2,-,N/A,,Clear,200,2013-10-08 20:15:00
3:35 PM,77.5,41.9,28,30.09,10.0,SSW,10.4,-,N/A,,Clear,200,2013-10-08 20:35:00
3:55 PM,77.7,42.4,28,30.08,10.0,SSW,6.9,-,N/A,,Clear,210,2013-10-08 20:55:00
4:15 PM,77.7,42.1,28,30.08,10.0,SSW,6.9,-,N/A,,Clear,210,2013-10-08 21:15:00
4:35 PM,77.7,41.4,27,30.08,10.0,South,8.1,-,N/A,,Clear,190,2013-10-08 21:35:00
4:55 PM,77.2,41.2,28,30.08,10.0,South,10.4,-,N/A,,Clear,180,2013-10-08 21:55:00
5:15 PM,76.3,42.3,30,30.08,10.0,South,10.4,-,N/A,,Clear,180,2013-10-08 22:15:00
5:35 PM,75.4,41.9,30,30.08,10.0,South,9.2,-,N/A,,Clear,180,2013-10-08 22:35:00
5:55 PM,73.6,42.6,33,30.08,10.0,South,6.9,-,N/A,,Clear,170,2013-10-08 22:55:00
6:15 PM,70.7,43.3,37,30.08,10.0,SSE,6.9,-,N/A,,Clear,160,2013-10-08 23:15:00
6:35 PM,67.3,43.9,43,30.09,10.0,SSE,8.1,-,N/A,,Clear,150,2013-10-08 23:35:00
6:55 PM,64.8,44.2,47,30.09,10.0,SSE,6.9,-,N/A,,Clear,150,2013-10-08 23:55:00
7:15 PM,63.7,44.6,50,30.09,10.0,SSE,9.2,-,N/A,,Clear,150,2013-10-09 00:15:00
7:35 PM,63.5,44.6,50,30.09,10.0,SSE,8.1,-,N/A,,Clear,150,2013-10-09 00:35:00
7:55 PM,63.0,44.6,51,30.10,10.0,SSE,9.2,-,N/A,,Clear,150,2013-10-09 00:55:00
8:15 PM,63.0,44.8,51,30.10,10.0,SSE,8.1,-,N/A,,Clear,150,2013-10-09 01:15:00
8:35 PM,61.2,45.5,56,30.11,10.0,South,5.8,-,N/A,,Clear,170,2013-10-09 01:35:00
8:55 PM,58.6,46.0,63,30.11,10.0,South,5.8,-,N/A,,Clear,170,2013-10-09 01:55:00
9:15 PM,59.0,45.7,61,30.11,10.0,South,3.5,-,N/A,,Clear,180,2013-10-09 02:15:00
9:35 PM,61.0,46.0,58,30.11,10.0,Calm,Calm,-,N/A,,Clear,0,2013-10-09 02:35:00
9:55 PM,59.4,45.9,61,30.11,10.0,South,4.6,-,N/A,,Clear,170,2013-10-09 02:55:00
10:15 PM,58.3,45.9,63,30.12,10.0,South,4.6,-,N/A,,Clear,170,2013-10-09 03:15:00
10:35 PM,56.5,46.6,69,30.12,10.0,Calm,Calm,-,N/A,,Clear,0,2013-10-09 03:35:00
10:55 PM,55.2,47.1,74,30.12,10.0,SSE,3.5,-,N/A,,Clear,160,2013-10-09 03:55:00
11:15 PM,54.5,46.4,74,30.13,10.0,Calm,Calm,-,N/A,,Clear,0,2013-10-09 04:15:00
11:35 PM,55.4,46.4,72,30.13,10.0,South,3.5,-,N/A,,Clear,170,2013-10-09 04:35:00
11:55 PM,54.3,46.2,74,30.13,10.0,South,3.5,-,N/A,,Clear,170,2013-10-09 04:55:00